Location: Alsip
(41.6689°N, 87.7387°W)
Time: 13:56:43
(UTC+00:00)

SPOT 3 Rocket - Pass Details

Date: 14 July 2020
Orbit: 779 x 795 km, 98.8° (Epoch: 05 August)

Event Time Altitude Azimuth Distance (km) Brightness Sun altitude
Exits shadow 01:51:50 - 157° (SSE) 3,207 6.2 -5.1°
Reaches altitude 10° 01:53:59 10° 156° (SSE) 2,354 5.5 -5.4°
Maximum altitude 01:59:09 70° 73° (ENE) 848 3.6 -6.2°
Drops below altitude 10° 02:04:21 10° 351° (N) 2,373 6.8 -7.0°
Sets 02:06:42 0° 349° (N) 3,306 7.6 -7.3°
